This is the latest recevied weather packets stored in our database for station/object 9W2SSS-1. If no packets are shown the sender has not sent any weather packets the latest 10 day(s).
| Time | Temp. | Humidity | Pressure | Rain* | Wind** | Luminosity | Snow |
|---|---|---|---|---|---|---|---|
| 1777333384 | 30° C | 69% | 1008 hPa | - | - | - | - |
| 1777332184 | 28.89° C | 70% | 1007.8 hPa | - | - | - | - |
| 1777330984 | 28.89° C | 70% | 1007.4 hPa | - | - | - | - |
| 1777328586 | 28.33° C | 71% | 1007.1 hPa | - | - | - | - |
| 1777327386 | 28.33° C | 69% | 1006.8 hPa | - | - | - | - |
| 1777326186 | 28.33° C | 69% | 1006.8 hPa | - | - | - | - |
| 1777324986 | 28.33° C | 69% | 1006.8 hPa | - | - | - | - |
| 1777323786 | 28.33° C | 69% | 1006.9 hPa | - | - | - | - |
| 1777322586 | 28.33° C | 67% | 1006.8 hPa | - | - | - | - |
| 1777321386 | 27.78° C | 67% | 1006.8 hPa | - | - | - | - |
| 1777320186 | 27.22° C | 65% | 1006.9 hPa | - | - | - | - |
| 1777318985 | 27.78° C | 66% | 1006.9 hPa | - | - | - | - |
| 1777317785 | 27.78° C | 66% | 1007.1 hPa | - | - | - | - |
| 1777316585 | 27.78° C | 67% | 1007.3 hPa | - | - | - | - |
| 1777315385 | 28.33° C | 66% | 1007.5 hPa | - | - | - | - |
| 1777314185 | 28.89° C | 68% | 1007.5 hPa | - | - | - | - |
| 1777312985 | 28.89° C | 70% | 1007.8 hPa | - | - | - | - |
| 1777311785 | 29.44° C | 69% | 1008.1 hPa | - | - | - | - |
| 1777310585 | 29.44° C | 69% | 1008.5 hPa | - | - | - | - |
| 1777309385 | 29.44° C | 69% | 1008.9 hPa | - | - | - | - |
| 1777308185 | 29.44° C | 69% | 1009.1 hPa | - | - | - | - |
| 1777306985 | 29.44° C | 67% | 1009.4 hPa | - | - | - | - |
| 1777305785 | 28.89° C | 66% | 1009.3 hPa | - | - | - | - |
| 1777304585 | 28.89° C | 64% | 1009.3 hPa | - | - | - | - |
| 1777303385 | 29.44° C | 67% | 1009.2 hPa | - | - | - | - |
* Rain since midnight (hover to see other rain measurements)
** Current wind speed in m/s (hover to see current wind gust speed)